Weather History for Cullman, AL

Change the Weather History Date:

Sunday, February 17, 2013

  Actual Average (KHSV) Record (KHSV)
Temperature  
Mean Temperature 32 °F 46 °F  
Max Temperature 47 °F 56 °F 80 °F (1927)
Min Temperature 18 °F 36 °F -8 °F (1958)
Degree Days  
Heating Degree Days 32 19  
Month to date heating degree days 352  
Since 1 July heating degree days 2262  
Cooling Degree Days 0 0  
Month to date cooling degree days 0  
Year to date cooling degree days 0  
Moisture  
Dew Point 16 °F    
Average Humidity 51    
Maximum Humidity 88    
Minimum Humidity 26    
Precipitation  
Precipitation 0.00 in 0.17 in 2.43 in (1986)
Month to date precipitation 2.88  
Year to date precipitation 7.77  
Snow  
Snow 0.00 in - - ()
Month to date snowfall  
Since 1 July snowfall  
Snow Depth -    
Sea Level Pressure  
Sea Level Pressure 30.25 in    
Wind  
Wind Speed 3 mph (SSW)    
Max Wind Speed 8 mph    
Max Gust Speed -    
Visibility 10 miles    
Events      
T = Trace of Precipitation, MM = Missing Value Source: NWS Daily Summary

Daily Weather History Graph

Daily Weather History Graph

Search for Another Location

Airport:

Trip Planner

Search our weather history database for the weather conditions in past years. The results will help you decide how hot, cold, wet, or windy it might be!

Date:

Astronomy

Feb. 17, 2013 Rise Set
Actual Time 6:30 AM CST 5:33 PM CST
Civil Twilight 6:04 AM CST 5:58 PM CST
Nautical Twilight 5:35 AM CST 6:28 PM CST
Astronomical Twilight 5:06 AM CST 6:57 PM CST
Moon 10:43 AM CST (2/17) 12:08 AM CST (2/17)
Length of Visible Light 11h 54m
Length of Day
11h 03m
Waxing Crescent, 49% of the Moon is Illuminated
Feb 17
Waxing Crescent
Feb 17
First Quarter
Feb 25
Full
Mar 4
Last Quarter
Mar 11
New

Hourly Weather History & Observations

Time (CST) Temp. Windchill Dew Point Humidity Pressure Visibility Wind Dir Wind Speed Gust Speed Precip Events Conditions
12:15 AM 26.6 °F 22.6 °F 12.7 °F 56% 30.23 in 10.0 mi WNW 3.5 mph - N/A   Clear
12:35 AM 26.4 °F 22.4 °F 12.7 °F 56% 30.24 in 10.0 mi NW 3.5 mph - N/A   Clear
12:55 AM 26.1 °F - 12.7 °F 57% 30.24 in 10.0 mi Calm Calm - N/A   Clear
1:15 AM 25.5 °F - 12.9 °F 59% 30.24 in 10.0 mi Calm Calm - N/A   Clear
1:35 AM 25.0 °F - 12.9 °F 60% 30.24 in 10.0 mi Calm Calm - N/A   Clear
1:55 AM 24.4 °F - 13.1 °F 62% 30.23 in 10.0 mi Calm Calm - N/A   Clear
2:15 AM 24.1 °F - 13.5 °F 64% 30.23 in 10.0 mi Calm Calm - N/A   Clear
2:35 AM 23.4 °F - 14.0 °F 67% 30.23 in 10.0 mi Calm Calm - N/A   Clear
2:55 AM 21.7 °F - 14.5 °F 74% 30.22 in 10.0 mi Calm Calm - N/A   Clear
3:15 AM 20.8 °F - 15.3 °F 79% 30.22 in 10.0 mi Calm Calm - N/A   Clear
3:35 AM 19.9 °F - 14.7 °F 80% 30.23 in 10.0 mi Calm Calm - N/A   Clear
3:55 AM 19.8 °F 14.7 °F 15.3 °F 83% 30.24 in 10.0 mi SSW 3.5 mph - N/A   Clear
4:15 AM 19.2 °F - 15.3 °F 85% 30.23 in 10.0 mi Calm Calm - N/A   Clear
4:35 AM 18.7 °F - 14.9 °F 85% 30.24 in 10.0 mi Calm Calm - N/A   Clear
4:55 AM 18.0 °F - 14.9 °F 88% 30.25 in 10.0 mi Calm Calm - N/A   Clear
5:15 AM 18.0 °F 12.7 °F 15.1 °F 88% 30.26 in 10.0 mi SSW 3.5 mph - N/A   Clear
5:55 AM 18.5 °F 13.3 °F 15.1 °F 86% 30.27 in 10.0 mi SSW 3.5 mph - N/A   Clear
6:15 AM 19.6 °F - 14.9 °F 82% 30.27 in 10.0 mi Calm Calm - N/A   Clear
6:35 AM 20.3 °F - 14.7 °F 79% 30.27 in 10.0 mi Calm Calm - N/A   Mostly Cloudy
6:55 AM 20.1 °F 15.2 °F 16.2 °F 85% 30.27 in 10.0 mi NE 3.5 mph - N/A   Mostly Cloudy
7:15 AM 21.7 °F - 17.6 °F 84% 30.28 in 10.0 mi Calm Calm - N/A   Mostly Cloudy
7:35 AM 23.9 °F - 18.1 °F 79% 30.27 in 10.0 mi Calm Calm - N/A   Mostly Cloudy
7:55 AM 25.7 °F - 18.3 °F 74% 30.28 in 10.0 mi Calm Calm - N/A   Scattered Clouds
8:15 AM 27.5 °F 23.6 °F 18.7 °F 69% 30.30 in 10.0 mi SSW 3.5 mph - N/A   Scattered Clouds
8:35 AM 29.5 °F 25.9 °F 19.8 °F 67% 30.30 in 10.0 mi South 3.5 mph - N/A   Mostly Cloudy
8:55 AM 31.8 °F 27.3 °F 17.2 °F 55% 30.30 in 10.0 mi South 4.6 mph - N/A   Scattered Clouds
9:15 AM 33.3 °F 28.9 °F 15.4 °F 48% 30.31 in 10.0 mi South 4.6 mph - N/A   Clear
9:35 AM 35.1 °F 31.0 °F 15.6 °F 45% 30.31 in 10.0 mi SSE 4.6 mph - N/A   Clear
9:55 AM 36.1 °F 31.4 °F 14.4 °F 41% 30.31 in 10.0 mi South 5.8 mph - N/A   Clear
10:15 AM 37.0 °F - 14.9 °F 40% 30.31 in 10.0 mi Calm Calm - N/A   Clear
10:35 AM 38.3 °F 34.8 °F 14.9 °F 39% 30.31 in 10.0 mi ESE 4.6 mph - N/A   Clear
10:55 AM 39.4 °F 37.2 °F 14.5 °F 36% 30.31 in 10.0 mi SE 3.5 mph - N/A   Clear
11:15 AM 40.5 °F 37.3 °F 14.0 °F 34% 30.31 in 10.0 mi SSE 4.6 mph - N/A   Scattered Clouds
11:35 AM 41.5 °F 39.6 °F 13.5 °F 32% 30.29 in 10.0 mi SSW 3.5 mph - N/A   Scattered Clouds
11:55 AM 41.9 °F 39.0 °F 12.9 °F 31% 30.29 in 10.0 mi West 4.6 mph - N/A   Scattered Clouds
12:15 PM 42.1 °F 38.4 °F 12.9 °F 31% 30.28 in 10.0 mi SSW 5.8 mph - N/A   Scattered Clouds
12:55 PM 43.9 °F 39.9 °F 12.9 °F 29% 30.26 in 10.0 mi WNW 6.9 mph - N/A   Scattered Clouds
1:15 PM 44.4 °F 42.9 °F 13.3 °F 28% 30.26 in 10.0 mi SW 3.5 mph - N/A   Scattered Clouds
1:35 PM 45.5 °F 42.5 °F 12.9 °F 27% 30.25 in 10.0 mi West 5.8 mph - N/A   Scattered Clouds
1:55 PM 46.0 °F 43.9 °F 12.7 °F 26% 30.24 in 10.0 mi NW 4.6 mph - N/A   Clear
2:15 PM 46.4 °F 44.3 °F 14.0 °F 27% 30.24 in 10.0 mi West 4.6 mph - N/A   Clear
2:35 PM 46.6 °F - 14.4 °F 27% 30.23 in 10.0 mi SW 5.8 mph - N/A   Scattered Clouds
2:55 PM 46.6 °F - 14.2 °F 27% 30.23 in 10.0 mi WSW 4.6 mph - N/A   Scattered Clouds
3:15 PM 47.3 °F - 14.5 °F 27% 30.23 in 10.0 mi WSW 5.8 mph - N/A   Scattered Clouds
3:35 PM 45.7 °F 43.4 °F 14.7 °F 29% 30.23 in 10.0 mi SW 4.6 mph - N/A   Scattered Clouds
3:55 PM 45.7 °F 44.4 °F 15.1 °F 29% 30.23 in 10.0 mi SSW 3.5 mph - N/A   Clear
4:15 PM 46.6 °F - 15.6 °F 29% 30.22 in 10.0 mi SSW 6.9 mph - N/A   Clear
4:35 PM 46.4 °F 43.5 °F 15.6 °F 29% 30.22 in 10.0 mi SSE 5.8 mph - N/A   Clear
4:55 PM 46.0 °F 41.9 °F 16.3 °F 30% 30.21 in 10.0 mi South 8.1 mph - N/A   Clear
5:15 PM 44.8 °F 42.4 °F 16.3 °F 32% 30.22 in 10.0 mi SSE 4.6 mph - N/A   Clear
5:35 PM 43.2 °F - 17.1 °F 35% 30.22 in 10.0 mi Calm Calm - N/A   Clear
5:55 PM 41.2 °F - 18.0 °F 39% 30.22 in 10.0 mi Calm Calm - N/A   Clear
6:15 PM 38.8 °F 36.5 °F 18.9 °F 45% 30.22 in 10.0 mi SE 3.5 mph - N/A   Clear
6:35 PM 38.8 °F - 18.7 °F 44% 30.22 in 10.0 mi Calm Calm - N/A   Clear
6:55 PM 37.2 °F - 18.9 °F 48% 30.23 in 10.0 mi Calm Calm - N/A   Clear
7:15 PM 36.7 °F - 19.0 °F 49% 30.23 in 10.0 mi Calm Calm - N/A   Clear
7:35 PM 36.5 °F - 19.6 °F 50% 30.23 in 10.0 mi Calm Calm - N/A   Clear
7:55 PM 36.9 °F 34.3 °F 18.7 °F 48% 30.23 in 10.0 mi South 3.5 mph - N/A   Clear
8:15 PM 37.8 °F 34.2 °F 18.5 °F 46% 30.23 in 10.0 mi SSW 4.6 mph - N/A   Clear
8:35 PM 36.7 °F 34.1 °F 19.0 °F 49% 30.24 in 10.0 mi South 3.5 mph - N/A   Clear
8:55 PM 36.7 °F 32.9 °F 18.9 °F 49% 30.24 in 10.0 mi South 4.6 mph - N/A   Clear
9:15 PM 36.9 °F 34.3 °F 18.7 °F 48% 30.24 in 10.0 mi South 3.5 mph - N/A   Clear
9:35 PM 36.7 °F 32.0 °F 18.7 °F 48% 30.24 in 10.0 mi SSE 5.8 mph - N/A   Clear
9:55 PM 37.2 °F 31.9 °F 18.7 °F 47% 30.24 in 10.0 mi South 6.9 mph - N/A   Clear
10:15 PM 37.0 °F 32.4 °F 18.5 °F 47% 30.24 in 10.0 mi South 5.8 mph - N/A   Clear
10:35 PM 36.7 °F 31.2 °F 18.3 °F 47% 30.24 in 10.0 mi South 6.9 mph - N/A   Clear
10:55 PM 37.4 °F 32.1 °F 17.8 °F 45% 30.24 in 10.0 mi South 6.9 mph - N/A   Clear
11:15 PM 37.2 °F 31.2 °F 18.1 °F 46% 30.24 in 10.0 mi South 8.1 mph - N/A   Clear
11:35 PM 37.4 °F 32.1 °F 18.0 °F 45% 30.23 in 10.0 mi SSE 6.9 mph - N/A   Clear
11:55 PM 37.4 °F 32.1 °F 17.6 °F 45% 30.23 in 10.0 mi SSE 6.9 mph - N/A   Clear